Regional Weather Roundup
Issued by NWS Upton, NY

Current Version | Previous Version | Text Only | Print | Product List | Glossary Off
Versions: 1 2 3 4 5 6 7 8 9 10 11 12 13 14 15 16 17 18 19 20 21 22 23 24 25 26 27 28 29 30 31 32 33 34 35 36 37 38 39 40 41 42 43 44 45 46 47 48 49 50
000 ASUS41 KOKX 281208 RWROKX REGIONAL WEATHER ROUNDUP NATIONAL WEATHER SERVICE NEW YORK NY 800 AM EDT TUE MAR 28 2017 NOTE: "FAIR" INDICATES FEW OR NO CLOUDS BELOW 12,000 FEET WITH NO SIGNIFICANT WEATHER AND/OR OBSTRUCTIONS TO VISIBILITY. NYZ071-072-176-178-NJZ106-104-281300- NEW YORK CITY METRO AREA CITY SKY/WX TMP DP RH WIND PRES REMARKS Central Park CLOUDY 43 42 97 VRB7 29.98S FOG Wall St Helipt CLOUDY 44 42 93 NE9 29.97S LaGuardia APRT CLOUDY 42 39 89 NE10 29.96R FOG Kennedy INTL CLOUDY 45 44 97 E9 29.97S Breezy Point N/A 43 N/A N/A E12 N/A Newark/Liberty CLOUDY 45 44 97 NE7 29.96R FOG Teterboro PTSUNNY 44 41 89 NE7 29.96R FOG $$ NYZ177-179-078>081-281300- LONG ISLAND NEW YORK CITY SKY/WX TMP DP RH WIND PRES REMARKS Jones Beach N/A 43 N/A N/A E15 N/A Matinecock PT N/A 37 N/A N/A E14 N/A WCI 29 Farmingdale CLOUDY 44 43 96 E9 29.97R MacArthur/ISP CLOUDY 43 43 100 SE8 29.97S FOG Shirley CLOUDY 42 42 100 SE6 29.99R Westhampton CLOUDY 42 40 92 E6 30.00S East Hampton CLOUDY 40 40 98 E7 29.99F Montauk N/A 41 40 96 E6 30.02 $$ NYZ052-065-067-281300- HUDSON VALLEY CITY SKY/WX TMP DP RH WIND PRES REMARKS White Plains N/A 40 39 97 E6 29.95R FOG Newburgh LGT RAIN 43 43 100 CALM 29.96R FOG Montgomery CLOUDY 42 41 96 CALM 29.94R FOG Poughkeepsie CLOUDY 41 40 96 CALM 29.95R FOG Albany CLOUDY 41 38 89 N3 29.95R FOG $$ NJZ001-105-106-008-010-013-015-019>022-104-281300- NEW JERSEY CITY SKY/WX TMP DP RH WIND PRES REMARKS Newark/Liberty CLOUDY 45 44 97 NE7 29.96R FOG Teterboro PTSUNNY 44 41 89 NE7 29.96R FOG Caldwell CLOUDY 44 42 93 NE5 29.97R FOG Somerville CLOUDY 47 46 97 VRB5 29.92S FOG Linden CLOUDY 46 43 92 E9 29.95S FOG Sussex LGT RAIN 44 44 100 CALM 29.94S FOG Andover N/A 44 43 96 CALM 29.93R Trenton FOG 45 45 100 E9 29.91S VSB 1/2 Millville LGT RAIN 55 55 100 CALM 29.88S FOG Atlantic City PTSUNNY 50 47 89 E7 29.91R Wrightstown CLOUDY 46 46 98 E6 29.90R Toms River CLOUDY 46 46 100 E5 29.93R FOG Belmar CLOUDY 44 44 100 NE8 29.94R FOG $$ PAZ047>061-062-071-281300- EASTERN PENNSYLVANIA CITY SKY/WX TMP DP RH WIND PRES REMARKS Philadelphia FOG 50 49 96 NE7 29.92R VSB 3/4 Allentown CLOUDY 50 46 86 E8 29.91S FOG Scranton LGT RAIN 52 50 93 E6 29.88S FOG $$ CTZ002-004>006-009-010-012-RIZ004-006-007-MAZ004-011-015-281300- SOUTHERN NEW ENGLAND IN CT CITY SKY/WX TMP DP RH WIND PRES REMARKS Bradley INTL FOG 39 38 96 NE3 30.00R VSB 1/2 Hartford CLOUDY 40 39 97 CALM 30.01R FOG Danbury CLOUDY 41 41 100 E7 29.98R Wtrbury/Oxford FOG 39 36 87 CALM 29.99R VSB 1/2 Bridgeport CLOUDY 41 38 89 NE13 29.99F FOG Meriden CLOUDY 41 38 89 N3 30.00S FOG New Haven CLOUDY 40 39 97 E7 29.99F FOG Chester NOT AVBL Groton FOG 39 38 96 E9 30.00R VSB 1 WCI 33 Wilimantic CLOUDY 42 39 89 E3 30.01R IN RI CITY SKY/WX TMP DP RH WIND PRES REMARKS Providence CLOUDY 39 37 92 E3 30.03R FOG Block Island LGT RAIN 38 38 100 E9 30.03R VSB 1 WCI 31 Westerly LGT RAIN 39 39 100 E10 30.03R VSB 1/2 WCI 32 IN MA CITY SKY/WX TMP DP RH WIND PRES REMARKS Boston CLOUDY 36 35 96 E6 30.04F WCI 31 Worcester FOG 34 32 92 E6 29.98R VSB<1/4 WCI 29 Westfield FOG 38 38 100 CALM 30.00R VSB 1/4 Provincetown CLOUDY 39 37 92 NE5 30.05S Nantucket FOG 39 38 96 NE9 30.02S VSB 3/4 WCI 33 $$ ANZ330-335-338-340-345-350-353-355-281300- COASTAL MARINE OBSERVATIONS STATION/POSITION TIME SKY/WX TEMP WIND PRES VSBY WAVE AIR SEA DIR/SP/G HT/PER (UTC) (F) (DEG/KT/KT) (MB) (MI) (FT/S) NY HARB ENTRANCE 1050 42 42 50/ 12/ 14 1013.6 3/ 6 20 S FIRE ISLAND 1150 43 41 110/ 17/ 19 1013.0 3/ 6 GREAT SOUTH BAY NOT AVBL 23 SSW MONTAUK P 1050 41 42 1015.2 3/ 7 15 E BARNEGAT LI 1130 44 N/A 4/ 6 HUDSON CANYON 1050 46 44 110/ 8/ 10 1014.0 3/ 7 KINGS POINT 1136 40 40 1014.5 EXECUTION ROCKS NOT AVBL CENTRAL LI SOUND 1115 39 80/ 8/ 12 N/A 1 EASTERN LI SOUND NOT AVBL ROBBINS REEF 1136 44 60/ 6/ 7 1014.7 $$ >>>>>>>>>>>>>>>>>>>>>>>>>>>> KEY <<<<<<<<<<<<<<<<<<<<<<<<<<< > < > SKY/WX - Sky Condition/Present Weather < > TMP - Temperature in Fahrenheit < > DP - Dew Point in Fahrenheit < > RH - Relative Humidity in Percent < > WIND - Direction (from) and Speed in MPH < > PRES - Mean Sea Level Pressure (inches of Hg) < > WCI - Wind Chill Index < > VSB - VISIBILITY IN MILES < > HX - HEAT INDEX < > TC - TEMPERATURE IN CELSIUS < > VRB - VARIABLE WIND DIRECTION < > < >>>>>>>>>>>>>>>>>>>>>>>>>>>> KEY <<<<<<<<<<<<<<<<<<<<<<<<<<<

USA.gov is the U.S. government's official web portal to all federal, state and local government web resources and services.